Location: Treviso
(45.6669°N, 12.2430°E)
Time: 16:42:30
(UTC+02:00)

CUBESAT XI-V - Pass Details

Date: 04 May 2019
Orbit: 668 x 694 km, 98.0° (Epoch: 23 May)

Event Time Altitude Azimuth Distance (km) Brightness Sun altitude
Exits shadow 03:17:42 19° 142° (SE) 1,619 ? -21.8°
Maximum altitude 03:20:53 53° 72° (ENE) 842 ? -21.5°
Drops below altitude 10° 03:25:24 10° 356° (N) 2,126 ? -21.1°
Sets 03:27:41 0° 352° (N) 3,042 ? -20.8°
